DW5256 Weather Reports


time (UTC)temp
F
wind
direction
speed
knots
gust
knots
rain 1hr
in
rain 24hr
in
rain mn
in
humidity
%
barometer
mb
20260902020527 74 276 3.5 8.7 0.00 0.00 0.00 68 1011.9
20260902015034 75 283 0.9 7.8 0.00 0.00 0.00 66 1012.1
20260902013534 76 290 3.5 7.8 0.00 0.00 0.00 64 1011.9
20260902012014 76 294 0.0 7.8 0.00 0.00 0.00 63 1012.0
20260902010534 77 266 1.7 9.6 0.00 0.00 0.00 61 1012.1
20260902005014 78 272 4.3 10.4 0.00 0.00 0.00 60 1012.2
20260902003533 78 293 0.9 8.7 0.00 0.00 0.00 59 1012.2
20260902002031 79 286 1.7 7.0 0.00 0.00 0.00 58 1012.2
20260902000530 78 284 4.3 9.6 0.00 0.00 0.00 58 1012.2
20260901235027 79 267 1.7 10.4 0.00 0.00 0.00 55 1012.4
20260901233531 80 301 2.6 11.3 0.00 0.00 0.00 55 1012.3
20260901232031 80 284 2.6 10.4 0.00 0.00 0.00 53 1012.4
20260901230530 81 286 1.7 10.4 0.00 0.00 0.00 53 1012.4
20260901225027 81 247 3.5 12.2 0.00 0.00 0.00 55 1012.4
20260901223549 83 292 4.3 12.2 0.00 0.00 0.00 56 1012.4
20260901222026 83 268 6.1 11.3 0.00 0.00 0.00 55 1012.4
20260901220527 83 276 5.2 12.2 0.00 0.00 0.00 56 1012.5
20260901215024 83 267 5.2 12.2 0.00 0.00 0.00 55 1012.6
20260901213525 83 296 5.2 12.2 0.00 0.00 0.00 53 1012.6
20260901212017 84 265 4.3 10.4 0.00 0.00 0.00 53 1012.8
20260901210518 84 281 3.5 11.3 0.00 0.00 0.00 55 1013.0
20260901205018 84 257 0.9 10.4 0.00 0.00 0.00 56 1012.8
20260901203519 84 302 0.9 13.0 0.00 0.00 0.00 56 1013.0
20260901202017 83 288 4.3 11.3 0.00 0.00 0.00 56 1013.0
20260901200520 84 304 3.5 11.3 0.00 0.00 0.00 55 1013.1
20260901195020 84 299 4.3 11.3 0.00 0.00 0.00 54 1013.2
20260901193523 84 275 1.7 10.4 0.00 0.00 0.00 52 1013.3
20260901192019 84 271 1.7 6.1 0.00 0.00 0.00 49 1013.4
20260901190545 83 269 0.0 7.8 0.00 0.00 0.00 51 1013.5
20260901185019 83 254 0.0 6.1 0.00 0.00 0.00 55 1013.6
20260901183518 81 315 0.0 4.3 0.00 0.00 0.00 53 1013.8
20260901182031 81 279 0.0 0.0 0.00 0.00 0.00 56 1014.0
20260901180525 79 281 0.0 0.0 0.00 0.00 0.00 58 1014.0
20260901175017 78 290 0.0 0.0 0.00 0.00 0.00 63 1014.1
20260901173535 77 292 0.0 0.0 0.00 0.00 0.00 66 1014.2
20260901172022 75 290 0.0 0.0 0.00 0.00 0.00 70 1014.1
20260901170532 74 317 0.0 0.0 0.00 0.00 0.00 72 1014.1
20260901165032 73 314 0.0 0.0 0.00 0.00 0.00 73 1014.1
20260901163523 72 306 0.0 0.0 0.00 0.00 0.00 75 1013.9
20260901162032 71 284 0.0 0.0 0.00 0.00 0.00 78 1013.9
20260901160523 70 307 0.0 0.0 0.00 0.00 0.00 79 1013.7
20260901153527 68 286 0.0 0.0 0.00 0.00 0.00 85 1013.6
20260901152041 67 286 0.0 0.0 0.00 0.00 0.00 86 1013.3
20260901150531 66 286 0.0 0.0 0.00 0.00 0.00 87 1013.4
20260901145024 66 286 0.0 0.0 0.00 0.00 0.00 87 1013.4
20260901143525 65 286 0.0 0.0 0.00 0.00 0.00 88 1013.4
20260901142041 65 286 0.0 0.0 0.00 0.00 0.00 88 1013.1
20260901140519 64 286 0.0 0.0 0.00 0.00 0.00 88 1013.0
20260901135030 64 286 0.0 0.0 0.00 0.00 0.00 88 1013.0
20260901133555 64 286 0.0 0.0 0.00 0.00 0.00 88 1012.9
20260901132028 64 286 0.0 0.0 0.00 0.00 0.00 88 1012.7
20260901130527 64 286 0.0 0.0 0.00 0.00 0.00 87 1012.5
20260901125053 64 286 0.0 0.0 0.00 0.00 0.00 87 1012.6
20260901123518 65 286 0.0 0.0 0.00 0.00 0.00 87 1012.5
20260901122017 65 286 0.0 0.0 0.00 0.00 0.00 87 1012.6
20260901120530 65 286 0.0 0.0 0.00 0.00 0.00 87 1012.5
20260901115027 65 286 0.0 0.0 0.00 0.00 0.00 87 1012.5
20260901113529 65 286 0.0 0.0 0.00 0.00 0.00 87 1012.4
20260901112030 65 286 0.0 0.0 0.00 0.00 0.00 87 1012.5
20260901110517 65 286 0.0 0.0 0.00 0.00 0.00 87 1012.3
20260901105034 65 286 0.0 0.0 0.00 0.00 0.00 87 1012.5
20260901103533 65 286 0.0 0.0 0.00 0.00 0.00 86 1012.5
20260901102028 66 286 0.0 0.0 0.00 0.00 0.00 86 1012.6
20260901100526 66 286 0.0 0.0 0.00 0.00 0.00 86 1012.7
20260901095051 66 286 0.0 0.0 0.00 0.00 0.00 86 1012.6
20260901093530 66 286 0.0 0.0 0.00 0.00 0.00 86 1012.6
20260901092022 66 286 0.0 0.0 0.00 0.00 0.00 85 1012.4
20260901090544 67 286 0.0 0.0 0.00 0.00 0.00 85 1012.4
20260901085022 67 286 0.0 0.0 0.00 0.00 0.00 85 1012.5
20260901083554 67 286 0.0 0.0 0.00 0.00 0.00 85 1012.5
20260901082030 67 286 0.0 0.0 0.00 0.00 0.00 84 1012.6
20260901080554 67 286 0.0 0.0 0.00 0.00 0.00 84 1012.7
20260901075032 67 286 0.0 0.0 0.00 0.00 0.00 83 1012.8
20260901073553 67 286 0.0 0.0 0.00 0.00 0.00 83 1012.7
20260901072026 67 286 0.0 0.0 0.00 0.00 0.00 83 1012.8
20260901070554 67 286 0.0 0.0 0.00 0.00 0.00 83 1012.9
20260901065021 67 286 0.0 0.0 0.00 0.00 0.00 83 1012.9
20260901063543 68 286 0.0 0.0 0.00 0.00 0.00 83 1012.8
20260901062021 68 286 0.0 0.0 0.00 0.00 0.00 82 1012.7
20260901060521 68 286 0.0 0.0 0.00 0.00 0.00 82 1012.7
20260901055017 68 286 0.0 0.0 0.00 0.00 0.00 82 1012.7
20260901053521 69 287 0.0 0.0 0.00 0.00 0.00 81 1012.7
20260901052018 69 287 0.0 0.0 0.00 0.00 0.00 81 1012.5
20260901050519 69 287 0.0 0.0 0.00 0.00 0.00 80 1012.3
20260901045018 69 287 0.0 0.0 0.00 0.00 0.00 80 1012.4
20260901043520 70 287 0.0 0.0 0.00 0.00 0.00 79 1012.2
20260901042022 70 287 0.0 0.0 0.00 0.00 0.00 78 1012.2
20260901040523 70 287 0.0 0.0 0.00 0.00 0.00 77 1012.2
20260901035053 71 287 0.0 0.0 0.00 0.00 0.00 76 1012.2
20260901033533 71 286 0.0 0.0 0.00 0.00 0.00 74 1011.8
20260901032052 72 287 0.0 0.0 0.00 0.00 0.00 73 1011.6
20260901030532 72 287 0.0 4.3 0.00 0.00 0.00 73 1011.5
20260901025014 73 294 0.0 0.0 0.00 0.00 0.00 71 1011.4
20260901023517 74 296 0.0 0.0 0.00 0.00 0.00 70 1011.2
20260901022015 75 279 0.0 0.0 0.00 0.00 0.00 68 1011.0